• In Hungary
  • List of Countries
  • For 7 days
  • Water Temperature
  • Satellite Maps
  • Weather Map
  • News
  • Weather Widgets
  • user-avatar
    Login

    Hourly Weather Akishevo

    Today, 14 August, Tuesday

    Time Temperature Precipitation Wind Pressure Humidity
    00:00 +13°C° 0 mm 2 mps 744 mmHg 94%
    01:00 +12°C° 0 mm 2 mps 745 mmHg 95%
    02:00 +10°C° 0 mm 2 mps 745 mmHg 97%
    03:00 +10°C° 0 mm 2 mps 745 mmHg 97%
    04:00 +10°C° 0 mm 2 mps 746 mmHg 97%
    05:00 +10°C° 0 mm 2 mps 746 mmHg 96%
    06:00 +13°C° 0 mm 2 mps 746 mmHg 89%
    07:00 +15°C° 0 mm 2 mps 746 mmHg 82%
    08:00 +18°C° 0 mm 2 mps 746 mmHg 75%
    09:00 +19°C° 0 mm 2 mps 747 mmHg 68%
    10:00 +20°C° 0 mm 2 mps 747 mmHg 61%
    11:00 +22°C° 0 mm 3 mps 747 mmHg 54%
    12:00 +22°C° 0 mm 3 mps 747 mmHg 53%
    13:00 +24°C° 0 mm 3 mps 747 mmHg 52%
    14:00 +24°C° 0 mm 3 mps 746 mmHg 51%
    15:00 +24°C° 0 mm 2 mps 746 mmHg 55%
    16:00 +23°C° 0 mm 2 mps 746 mmHg 58%
    17:00 +23°C° 0 mm 1 mps 746 mmHg 62%
    18:00 +21°C° 0 mm 1 mps 746 mmHg 68%
    19:00 +19°C° 0 mm 1 mps 746 mmHg 74%
    20:00 +16°C° 0 mm 1 mps 746 mmHg 80%
    21:00 +16°C° 0 mm 1 mps 746 mmHg 83%
    22:00 +15°C° 0 mm 1 mps 746 mmHg 87%
    23:00 +15°C° 0 mm 2 mps 746 mmHg 90%

    Tomorrow, 15 August, Wednesday

    Time Temperature Precipitation Wind Pressure Humidity
    00:00 +15°C° 0 mm 2 mps 746 mmHg 91%
    01:00 +15°C° 0 mm 2 mps 746 mmHg 93%
    02:00 +15°C° 0 mm 2 mps 745 mmHg 95%
    03:00 +15°C° 0 mm 2 mps 745 mmHg 94%
    04:00 +16°C° 0 mm 2 mps 744 mmHg 94%
    05:00 +16°C° 0 mm 3 mps 744 mmHg 93%
    06:00 +17°C° 0 mm 3 mps 743 mmHg 90%
    07:00 +19°C° 0 mm 4 mps 743 mmHg 86%
    08:00 +20°C° 0 mm 4 mps 743 mmHg 82%
    09:00 +21°C° 0.3 mm 4 mps 742 mmHg 80%
    10:00 +23°C° 0.3 mm 5 mps 742 mmHg 77%
    11:00 +25°C° 0.3 mm 5 mps 742 mmHg 75%
    12:00 +25°C° 0.8 mm 5 mps 741 mmHg 79%
    13:00 +23°C° 0.8 mm 5 mps 741 mmHg 83%
    14:00 +22°C° 0.8 mm 4 mps 741 mmHg 86%
    15:00 +22°C° 0.3 mm 4 mps 741 mmHg 83%
    16:00 +22°C° 0.3 mm 4 mps 742 mmHg 80%
    17:00 +22°C° 0.3 mm 4 mps 742 mmHg 78%
    18:00 +21°C° 0 mm 4 mps 742 mmHg 82%
    19:00 +19°C° 0 mm 3 mps 743 mmHg 86%
    20:00 +17°C° 0 mm 3 mps 743 mmHg 90%
    21:00 +17°C° 0 mm 2 mps 743 mmHg 91%
    22:00 +16°C° 0 mm 2 mps 743 mmHg 93%
    23:00 +16°C° 0 mm 2 mps 743 mmHg 95%

    Day after tomorrow, 16 August, Thursday

    Time Temperature Precipitation Wind Pressure Humidity
    00:00 +15°C° 0 mm 2 mps 744 mmHg 95%
    01:00 +15°C° 0 mm 2 mps 744 mmHg 96%
    02:00 +15°C° 0 mm 2 mps 745 mmHg 96%
    03:00 +15°C° 0 mm 2 mps 745 mmHg 96%
    04:00 +15°C° 0 mm 2 mps 745 mmHg 96%
    05:00 +15°C° 0 mm 2 mps 746 mmHg 95%
    06:00 +15°C° 0 mm 2 mps 746 mmHg 92%
    07:00 +15°C° 0 mm 2 mps 746 mmHg 89%
    08:00 +16°C° 0 mm 2 mps 747 mmHg 86%
    09:00 +17°C° 0 mm 2 mps 747 mmHg 80%
    10:00 +18°C° 0 mm 2 mps 747 mmHg 73%
    11:00 +19°C° 0 mm 2 mps 748 mmHg 66%
    12:00 +20°C° 0 mm 2 mps 748 mmHg 62%
    13:00 +21°C° 0 mm 2 mps 748 mmHg 58%
    14:00 +23°C° 0 mm 2 mps 748 mmHg 53%
    15:00 +23°C° 0 mm 2 mps 748 mmHg 56%
    16:00 +23°C° 0 mm 2 mps 749 mmHg 59%
    17:00 +23°C° 0 mm 2 mps 749 mmHg 61%
    18:00 +20°C° 0 mm 2 mps 749 mmHg 68%
    19:00 +18°C° 0 mm 2 mps 749 mmHg 74%
    20:00 +16°C° 0 mm 1 mps 750 mmHg 80%
    21:00 +15°C° 0 mm 1 mps 750 mmHg 82%
    22:00 +14°C° 0 mm 1 mps 750 mmHg 84%
    23:00 +14°C° 0 mm 2 mps 751 mmHg 85%

    17 August, Friday

    Time Temperature Precipitation Wind Pressure Humidity
    00:00 +13°C° 0 mm 1 mps 751 mmHg 86%
    01:00 +13°C° 0 mm 1 mps 751 mmHg 86%
    02:00 +12°C° 0 mm 1 mps 751 mmHg 87%
    03:00 +12°C° 0 mm 1 mps 752 mmHg 87%
    04:00 +12°C° 0 mm 1 mps 752 mmHg 87%
    05:00 +11°C° 0 mm 1 mps 752 mmHg 88%
    06:00 +14°C° 0 mm 1 mps 752 mmHg 81%
    07:00 +16°C° 0 mm 1 mps 753 mmHg 73%
    08:00 +19°C° 0 mm 1 mps 753 mmHg 66%
    09:00 +20°C° 0 mm 1 mps 753 mmHg 61%
    10:00 +22°C° 0 mm 1 mps 753 mmHg 55%
    11:00 +23°C° 0 mm 1 mps 753 mmHg 49%
    12:00 +24°C° 0 mm 1 mps 753 mmHg 48%
    13:00 +24°C° 0 mm 1 mps 753 mmHg 46%
    14:00 +25°C° 0 mm 1 mps 753 mmHg 44%
    15:00 +24°C° 0 mm 1 mps 752 mmHg 48%
    16:00 +24°C° 0 mm 1 mps 752 mmHg 53%
    17:00 +24°C° 0 mm 1 mps 752 mmHg 57%
    18:00 +21°C° 0 mm 1 mps 752 mmHg 63%
    19:00 +19°C° 0 mm 1 mps 752 mmHg 68%
    20:00 +16°C° 0 mm 1 mps 752 mmHg 73%
    21:00 +15°C° 0 mm 1 mps 753 mmHg 76%
    22:00 +14°C° 0 mm 1 mps 753 mmHg 78%
    23:00 +14°C° 0 mm 1 mps 753 mmHg 81%

    18 August, Saturday

    Time Temperature Precipitation Wind Pressure Humidity
    00:00 +13°C° 0 mm 1 mps 753 mmHg 82%
    01:00 +13°C° 0 mm 1 mps 753 mmHg 83%
    02:00 +12°C° 0 mm 1 mps 753 mmHg 85%
    03:00 +12°C° 0 mm 1 mps 753 mmHg 85%
    04:00 +12°C° 0 mm 1 mps 753 mmHg 85%
    05:00 +12°C° 0 mm 1 mps 753 mmHg 85%
    06:00 +14°C° 0 mm 1 mps 753 mmHg 79%
    07:00 +16°C° 0 mm 2 mps 753 mmHg 72%
    08:00 +18°C° 0 mm 2 mps 753 mmHg 65%
    09:00 +20°C° 0 mm 2 mps 753 mmHg 60%
    10:00 +23°C° 0 mm 2 mps 753 mmHg 55%
    11:00 +24°C° 0 mm 3 mps 753 mmHg 51%
    12:00 +25°C° 0 mm 3 mps 753 mmHg 50%
    13:00 +25°C° 0 mm 3 mps 752 mmHg 50%
    14:00 +26°C° 0 mm 3 mps 752 mmHg 49%
    15:00 +25°C° 0 mm 3 mps 752 mmHg 53%
    16:00 +25°C° 0 mm 2 mps 751 mmHg 57%
    17:00 +24°C° 0 mm 2 mps 751 mmHg 61%
    18:00 +21°C° 0 mm 2 mps 751 mmHg 67%
    19:00 +19°C° 0 mm 2 mps 751 mmHg 73%
    20:00 +17°C° 0 mm 2 mps 751 mmHg 79%
    21:00 +16°C° 0 mm 2 mps 751 mmHg 80%
    22:00 +16°C° 0 mm 2 mps 751 mmHg 81%
    23:00 +15°C° 0 mm 2 mps 751 mmHg 83%

    19 August, Sunday

    Time Temperature Precipitation Wind Pressure Humidity
    00:00 +15°C° 0 mm 2 mps 751 mmHg 84%
    01:00 +14°C° 0 mm 2 mps 751 mmHg 85%
    02:00 +14°C° 0 mm 2 mps 750 mmHg 87%
    03:00 +13°C° 0 mm 3 mps 750 mmHg 86%
    04:00 +13°C° 0 mm 3 mps 750 mmHg 86%
    05:00 +13°C° 0 mm 3 mps 750 mmHg 85%
    06:00 +14°C° 0 mm 3 mps 750 mmHg 79%
    07:00 +17°C° 0 mm 4 mps 749 mmHg 72%
    08:00 +19°C° 0 mm 4 mps 749 mmHg 66%
    09:00 +20°C° 0 mm 4 mps 749 mmHg 64%
    10:00 +22°C° 0 mm 4 mps 749 mmHg 63%
    11:00 +23°C° 0 mm 5 mps 748 mmHg 61%
    12:00 +25°C° 0.1 mm 5 mps 748 mmHg 61%
    13:00 +26°C° 0.1 mm 5 mps 748 mmHg 62%
    14:00 +26°C° 0.1 mm 5 mps 747 mmHg 62%
    15:00 +25°C° 0.7 mm 4 mps 747 mmHg 69%
    16:00 +25°C° 0.7 mm 4 mps 747 mmHg 75%
    17:00 +24°C° 0.7 mm 3 mps 746 mmHg 82%
    18:00 +21°C° 0.9 mm 3 mps 746 mmHg 86%
    19:00 +20°C° 0.9 mm 3 mps 746 mmHg 91%
    20:00 +19°C° 0.9 mm 2 mps 746 mmHg 95%
    21:00 +18°C° 0.1 mm 2 mps 746 mmHg 96%
    22:00 +18°C° 0.1 mm 2 mps 747 mmHg 96%
    23:00 +17°C° 0.1 mm 2 mps 747 mmHg 97%
    Show more